DateTimeUTC,F1_A11,F1_S11,BsB_S11,BsG_S11,BsR_S11,BbsB_S11,BbsG_S11,BbsR_S11,BaB_A11,BaG_A11,BaR_A11,Tu_S11,T_S11,Uu_S11,U_S11,P_S11,T1_A11
2021-07-19T19:00:00Z,00000200,20000000,,,,,,,-000.08,0000.14,-000.07,20.0,26.3,16.0,10.9,0674.2,31.1
2021-07-19T19:01:00Z,00000200,20000000,,,,,,,0000.09,-000.00,0000.05,20.0,26.3,16.0,10.9,0674.2,31.1
2021-07-19T19:02:00Z,00000200,20000000,,,,,,,-000.17,-000.21,0000.10,20.0,26.3,16.0,10.9,0674.2,31.1
2021-07-19T19:03:00Z,00000200,60000000,,,,,,,-000.06,-000.09,0000.07,20.0,26.3,16.0,10.9,0674.2,31.1
2021-07-19T19:04:00Z,00000200,40000000,0000.12,0000.37,0000.31,0000.54,-000.04,0000.32,-000.10,0000.32,-000.14,20.0,26.2,15.8,10.9,0675.2,31.1
2021-07-19T19:05:00Z,00000200,00000000,0000.67,0000.42,0000.18,0000.18,0000.42,0000.20,0000.15,-000.41,0000.02,20.1,26.1,15.8,11.0,0675.2,31.1
2021-07-19T19:06:00Z,00000200,00000000,-000.04,0000.04,-000.19,0000.19,0000.09,0000.16,-000.19,-000.01,-000.28,20.1,26.1,15.8,11.0,0675.2,31.1
2021-07-19T19:07:00Z,00000200,00000000,0000.12,0000.06,-000.06,-000.32,0000.08,-000.27,0000.16,-000.08,0000.03,20.1,26.1,15.7,10.9,0675.2,31.1
2021-07-19T19:08:00Z,00000200,00000000,0000.19,-000.04,-000.24,-000.09,0000.48,0000.04,-000.26,0000.18,-000.10,20.1,26.1,15.7,10.9,0675.2,31.1
2021-07-19T19:09:00Z,00000200,00000000,-000.34,0000.03,-000.09,0000.08,0000.26,-000.09,0000.14,-000.05,0000.22,20.1,26.1,15.8,11.0,0675.2,31.1
2021-07-19T19:10:00Z,00000200,00000000,0000.21,0000.31,0000.06,-000.08,0000.31,-000.38,-000.44,-000.05,-000.04,20.1,26.1,15.7,10.9,0675.2,31.1
2021-07-19T19:11:00Z,00000200,00000000,-000.03,0000.22,0000.44,0000.02,0000.41,0000.18,0000.42,0000.16,0000.05,20.1,26.1,15.7,11.0,0675.2,31.2
2021-07-19T19:12:00Z,00000200,00000000,0000.19,0000.41,0000.09,0000.12,0000.33,-000.11,0000.16,-000.07,-000.15,20.1,26.1,15.9,11.1,0675.2,31.2
2021-07-19T19:13:00Z,00000200,00000000,0000.37,0000.20,0000.03,0000.09,-000.01,-000.02,-000.11,0000.25,0000.22,20.1,26.1,15.8,11.0,0675.2,31.1
2021-07-19T19:14:00Z,00000200,00000000,0000.22,0000.27,0000.17,-000.02,0000.17,0000.16,0000.09,-000.14,-000.01,20.1,26.1,15.9,11.1,0675.2,31.1
2021-07-19T19:15:00Z,00000200,00000000,-000.02,0000.40,0000.26,-000.16,0000.38,0000.02,-000.23,-000.10,-000.01,20.1,26.1,15.9,11.1,0675.2,31.1
2021-07-19T19:16:00Z,00000200,00000000,-000.36,0000.34,0000.09,0000.05,-000.04,0000.18,0000.47,0000.20,-000.09,20.1,26.1,15.8,11.0,0675.2,31.1
2021-07-19T19:17:00Z,00000200,00000000,0000.29,0000.25,0000.19,-000.25,0000.01,-000.08,-000.22,-000.20,0000.08,20.1,26.1,15.9,11.1,0675.2,31.1
2021-07-19T19:18:00Z,00000200,00000000,0000.18,0000.32,-000.01,-000.06,0000.17,-000.16,0000.16,0000.08,0000.14,20.1,26.1,16.0,11.1,0675.2,31.1
2021-07-19T19:19:00Z,00000200,00000000,0000.40,0000.43,-000.18,-000.49,0000.12,0000.31,-000.30,0000.25,-000.10,20.1,26.1,15.9,11.0,0675.2,31.1
2021-07-19T19:20:00Z,00000200,00000000,-000.43,0000.06,0000.04,0000.43,0000.40,-000.02,0000.37,-000.08,-000.15,20.1,26.1,16.0,11.1,0675.2,31.1
2021-07-19T19:21:00Z,00000200,00000000,0000.31,0000.08,-000.04,0000.10,0000.30,-000.11,-000.22,0000.00,0000.08,20.1,26.1,16.1,11.2,0675.2,31.1
2021-07-19T19:22:00Z,00000200,00000000,-000.26,0000.31,0000.14,0000.29,0000.31,-000.24,0000.05,0000.08,0000.14,20.1,26.1,16.2,11.2,0675.2,31.1
2021-07-19T19:23:00Z,00000200,00000000,-000.10,0000.40,-000.08,-000.02,0000.05,0000.26,0000.02,-000.10,-000.02,20.1,26.1,16.1,11.2,0675.2,31.2
2021-07-19T19:24:00Z,00000200,00000000,-000.56,0000.18,-000.04,-000.20,-000.18,0000.16,0000.10,-000.13,0000.12,20.1,26.0,16.1,11.2,0675.2,31.1
2021-07-19T19:25:00Z,00000200,00000000,-000.42,0000.47,-000.13,0000.23,0000.18,0000.25,0000.09,0000.21,0000.10,20.1,26.1,16.0,11.1,0675.2,31.1
2021-07-19T19:26:00Z,00000200,00000000,-000.12,-000.02,-000.16,0000.04,-000.07,-000.17,-000.31,-000.10,-000.15,20.1,26.1,16.1,11.2,0675.3,31.1
2021-07-19T19:27:00Z,00000200,00000000,-000.14,0000.06,-000.24,-000.05,0000.16,-000.08,0000.37,0000.03,-000.15,20.1,26.1,16.2,11.2,0675.2,31.1
2021-07-19T19:28:00Z,00000200,00000000,0000.04,0000.26,-000.49,0000.41,0000.30,0000.05,-000.10,0000.14,0000.44,20.1,26.1,16.2,11.3,0675.3,31.1
2021-07-19T19:29:00Z,00000200,00000000,0000.10,0000.48,-000.19,0000.34,0000.24,-000.24,-000.07,0000.05,0000.10,20.1,26.1,16.3,11.4,0675.3,31.1
2021-07-19T19:30:00Z,00000200,00000000,-000.26,0000.24,0000.06,0000.14,0000.15,0000.14,0000.20,0000.00,-000.26,20.1,26.1,16.3,11.4,0675.2,31.1
2021-07-19T19:31:00Z,00000200,00000000,0000.03,-000.04,0000.13,0000.27,0000.34,-000.25,-000.12,-000.08,0000.03,20.1,26.1,16.3,11.3,0675.3,31.1
2021-07-19T19:32:00Z,00000200,00000000,0000.22,0000.09,-000.32,0000.25,-000.07,0000.04,0000.21,-000.07,0000.22,20.1,26.1,16.4,11.4,0675.3,31.2
2021-07-19T19:33:00Z,00000200,00000000,0000.16,0000.33,-000.09,0000.28,-000.08,0000.01,-000.09,0000.31,-000.11,20.1,26.1,16.3,11.3,0675.3,31.1
2021-07-19T19:34:00Z,00000200,00000000,0000.97,0000.39,-000.12,0000.12,0000.19,-000.01,0000.07,-000.18,0000.04,20.1,26.1,16.4,11.4,0675.3,31.1
2021-07-19T19:35:00Z,00000200,00000000,0000.33,0000.22,-000.13,-000.09,0000.33,-000.10,-000.23,0000.20,-000.25,20.1,26.1,16.4,11.4,0675.2,31.2
2021-07-19T19:36:00Z,00000200,00000000,0000.04,0000.34,0000.28,0000.02,-000.03,0000.13,0000.14,0000.08,0000.43,20.1,26.1,16.4,11.5,0675.2,31.1
2021-07-19T19:37:00Z,00000200,00000000,-000.07,0000.36,0000.07,-000.11,0000.28,0000.33,0000.15,-000.13,-000.16,20.1,26.1,16.5,11.5,0675.2,31.1
2021-07-19T19:38:00Z,00000200,00000000,-000.29,0000.34,0000.48,0000.46,0000.20,0000.20,-000.09,-000.14,0000.32,20.1,26.1,16.4,11.5,0675.3,31.1
2021-07-19T19:39:00Z,00000200,00000000,-000.25,0000.31,-000.26,0000.10,-000.10,0000.11,-000.45,-000.45,-000.61,20.1,26.1,16.3,11.4,0675.2,31.1
2021-07-19T19:40:00Z,00000200,00000000,0000.46,-000.04,0000.03,-000.29,0000.21,0000.11,-000.24,0000.36,0000.01,20.1,26.1,16.2,11.3,0675.2,31.1
2021-07-19T19:41:00Z,00000200,00000000,0000.24,0000.16,0000.08,-000.10,0000.01,-000.08,0000.27,-000.32,0000.10,20.1,26.1,16.2,11.3,0675.3,31.1
2021-07-19T19:42:00Z,00000200,00000000,0000.18,0000.10,-000.08,-000.32,-000.21,-000.16,0000.12,0000.04,-000.01,20.1,26.1,16.1,11.2,0675.2,31.1
2021-07-19T19:43:00Z,00000200,00000000,0000.82,0000.08,0000.18,0000.02,0000.33,-000.10,-000.38,-000.11,-000.30,20.1,26.1,16.3,11.3,0675.3,31.1
2021-07-19T19:44:00Z,00000200,00000000,0000.59,0000.47,-000.02,0000.35,0000.12,-000.07,0000.16,0000.12,0000.41,20.1,26.0,16.2,11.3,0675.2,31.1
2021-07-19T19:45:00Z,00000200,00000000,-000.00,0000.06,-000.14,0000.45,0000.08,-000.08,-000.21,0000.13,-000.20,20.1,26.1,16.3,11.3,0675.2,31.1
2021-07-19T19:46:00Z,00000200,00000000,-001.13,0000.50,0000.32,0000.51,-000.09,0000.25,0000.11,-000.36,0000.13,20.1,26.1,16.2,11.3,0675.2,31.1
2021-07-19T19:47:00Z,00000200,00000000,0000.30,0000.61,0000.15,0000.01,0000.05,0000.01,-000.05,0000.15,-000.34,20.1,26.1,16.3,11.3,0675.2,31.1
2021-07-19T19:48:00Z,00000200,00000000,0000.80,-000.01,-000.00,-000.20,0000.13,0000.02,0000.12,0000.16,0000.26,20.1,26.1,16.2,11.3,0675.2,31.1
2021-07-19T19:49:00Z,00000200,00000000,0000.79,-000.01,-000.15,-000.29,0000.21,0000.25,-000.10,0000.07,0000.08,20.1,26.1,16.3,11.3,0675.2,31.1
2021-07-19T19:50:00Z,00000200,00000000,0000.26,0000.12,0000.22,0000.10,-000.15,-000.05,-000.02,-000.37,-000.43,20.1,26.1,16.2,11.3,0675.2,31.1
2021-07-19T19:51:00Z,00000200,00000000,-000.26,0000.30,0000.07,0000.07,0000.18,0000.08,-000.10,0000.06,0000.07,20.1,26.1,16.2,11.3,0675.2,31.1
2021-07-19T19:52:00Z,00000200,00000000,-000.02,0000.41,-000.16,-000.67,0000.52,0000.14,0000.02,0000.08,-000.17,20.1,26.1,16.2,11.3,0675.2,31.1
2021-07-19T19:53:00Z,00000200,00000000,-000.78,0000.34,0000.01,0000.57,0000.13,-000.30,-000.48,-000.32,0000.09,20.1,26.1,16.2,11.3,0675.2,31.1
2021-07-19T19:54:00Z,00000200,00000000,-000.12,0000.62,0000.10,-000.25,0000.51,0000.12,0000.44,0000.34,-000.05,20.1,26.1,16.2,11.3,0675.2,31.2
2021-07-19T19:55:00Z,00000200,00000000,0000.16,0000.41,-000.05,0000.46,0000.17,0000.04,-000.02,-000.10,0000.12,20.1,26.1,16.1,11.2,0675.2,31.2
2021-07-19T19:56:00Z,00000200,00000000,-000.37,0000.09,-000.01,0000.29,0000.23,-000.17,-000.03,-000.09,0000.19,20.1,26.1,16.1,11.3,0675.2,31.1
2021-07-19T19:57:00Z,00000200,40000000,,,,,,,0000.11,-000.26,-000.35,20.2,26.1,16.1,11.3,0675.2,31.2
2021-07-19T19:58:00Z,00000200,60000000,,,,,,,-000.17,0000.08,0000.02,20.0,26.2,16.2,11.1,0674.1,31.2
2021-07-19T19:59:00Z,00000200,20000000,,,,,,,0000.11,-000.07,0000.07,20.0,26.3,16.2,11.1,0674.1,31.1
